Location: Eisingen in Unterfranken
(49.7591°N, 9.8347°E)
Time: 12:49:01
(UTC+01:00)

N. Korean satellite - Pass Details

Date: 09 December 2022
Orbit: 407 x 441 km, 97.3° (Epoch: 05 February)

Event Time Altitude Azimuth Distance (km) Brightness Sun altitude
Rises 05:48:19 0° 13° (NNE) 2,511 10.2 -21.1°
Reaches altitude 10° 05:50:24 10° 13° (NNE) 1,624 9.2 -20.7°
Maximum altitude 05:53:53 89° 105° (ESE) 464 6.3 -20.2°
Drops below altitude 10° 05:57:17 10° 194° (SSW) 1,580 9.1 -19.7°
Sets 05:59:17 0° 194° (SSW) 2,436 10.1 -19.3°
